Location: Carrières
(48.9495°N, 2.0407°E)
Time: 22:05:05
(UTC+00:00)

Transit 2A Rocket - Pass Details

Date: 25 April 2024
Orbit: 585 x 908 km, 66.7° (Epoch: 18 May)

Event Time Altitude Azimuth Distance (km) Brightness Sun altitude
Rises 19:57:45 0° 316° (NW) 3,342 10.2 -9.3°
Reaches altitude 10° 20:00:28 10° 304° (NW) 2,455 9.3 -9.7°
Maximum altitude 20:05:07 26° 249° (WSW) 1,637 7.1 -10.3°
Drops below altitude 10° 20:09:57 10° 195° (SSW) 2,561 7.5 -11.0°
Sets 20:12:52 0° 184° (S) 3,515 8.1 -11.3°
